Weather History for Concord, NH

Change the Weather History Date:

Tuesday, August 5, 2014

  Actual Average Record
Temperature  
Mean Temperature 72 °F 70 °F  
Max Temperature 84 °F 82 °F 100 °F (1955)
Min Temperature 60 °F 58 °F 36 °F (1972)
Degree Days  
Heating Degree Days 0 0  
Month to date heating degree days 0 0  
Since 1 June heating degree days 56 102  
Since 1 July heating degree days 0 17  
Cooling Degree Days 7 5  
Month to date cooling degree days 20 28  
Year to date cooling degree days 270 302  
Since 1 June cooling degree days 268 284  
Growing Degree Days 22 (Base 50)    
Moisture  
Dew Point 63 °F    
Average Humidity 76    
Maximum Humidity 100    
Minimum Humidity 51    
Precipitation  
Precipitation T in 0.12 in 3.32 in (1908)
Month to date precipitation T 0.58  
Year to date precipitation 29.06 23.67  
Snow  
Snow 0.00 in 0.00 in 0.00 in (2002)
Month to date snowfall 0.0 0.0  
Since 1 June snowfall 0.0 0.0  
Since 1 July snowfall 0.0 0.0  
Snow Depth 0.00 in    
Sea Level Pressure  
Sea Level Pressure 29.99 in    
Wind  
Wind Speed 3 mph (North)    
Max Wind Speed 23 mph    
Max Gust Speed 29 mph    
Visibility 6 miles    
Events Fog , Rain    
T = Trace of Precipitation, MM = Missing Value Source: NWS Daily Summary

Daily Weather History Graph

Daily Weather History Graph

Search for Another Location

Airport:

Trip Planner

Search our weather history database for the weather conditions in past years. The results will help you decide how hot, cold, wet, or windy it might be!

Date:

Astronomy

Aug. 05, 2014 Rise Set
Actual Time 5:40 AM EDT 8:02 PM EDT
Civil Twilight 5:08 AM EDT 8:34 PM EDT
Nautical Twilight 4:28 AM EDT 9:13 PM EDT
Astronomical Twilight 3:44 AM EDT 9:57 PM EDT
Moon 3:15 PM EDT (8/5) 12:26 AM EDT (8/5)
Length of Visible Light 15h 25m
Length of Day
14h 22m
Waxing Gibbous, 67% of the Moon is Illuminated
Aug 5
Waxing Gibbous
Aug 10
Full
Aug 17
Last Quarter
Aug 25
New
Sep 2
First Quarter

Hourly Weather History & Observations

Time (EDT) Temp. Heat Index Dew Point Humidity Pressure Visibility Wind Dir Wind Speed Gust Speed Precip Events Conditions
12:21 AM 64.0 °F - 63.0 °F 96% 30.04 in 2.0 mi Calm Calm - N/A   Clear
12:31 AM 64.0 °F - 63.0 °F 96% 30.04 in 7.0 mi Calm Calm - N/A   Clear
12:51 AM 63.0 °F - 63.0 °F 100% 30.03 in 8.0 mi Calm Calm - N/A   Clear
1:47 AM 62.6 °F - 62.6 °F 100% 30.02 in 6.0 mi Calm Calm - N/A   Scattered Clouds
1:51 AM 62.6 °F - 62.6 °F 100% 30.03 in 7.0 mi Calm Calm - N/A   Mostly Cloudy
2:30 AM 62.1 °F - 61.0 °F 96% 30.02 in 7.0 mi Calm Calm - N/A   Mostly Cloudy
2:51 AM 60.1 °F - 60.1 °F 100% 30.02 in 5.0 mi SE 3.5 mph - N/A   Overcast
3:07 AM 61.0 °F - 61.0 °F 100% 30.02 in 1.5 mi Calm Calm - N/A   Overcast
3:09 AM 61.0 °F - 61.0 °F 100% 30.02 in 0.8 mi Calm Calm - N/A   Overcast
3:17 AM 62.1 °F - 62.1 °F 100% 30.02 in 0.5 mi Calm Calm - N/A Fog Fog
3:31 AM 63.0 °F - 63.0 °F 100% 30.02 in 0.2 mi Calm Calm - N/A Fog Fog
3:51 AM 63.0 °F - 63.0 °F 100% 30.02 in 0.2 mi Calm Calm - N/A Fog Fog
4:51 AM 62.6 °F - 62.6 °F 100% 30.02 in 0.2 mi Calm Calm - N/A Fog Fog
5:51 AM 61.0 °F - 61.0 °F 100% 30.02 in 0.2 mi Calm Calm - N/A Fog Fog
6:51 AM 62.1 °F - 62.1 °F 100% 30.03 in 0.2 mi Calm Calm - N/A Fog Fog
7:49 AM 62.6 °F - 62.6 °F 100% 30.04 in 0.8 mi Calm Calm - N/A   Overcast
7:51 AM 63.0 °F - 63.0 °F 100% 30.04 in 0.8 mi Calm Calm - N/A   Overcast
8:00 AM 63.0 °F - 63.0 °F 100% 30.04 in 1.2 mi Calm Calm - N/A   Overcast
8:08 AM 63.0 °F - 63.0 °F 100% 30.04 in 2.0 mi Calm Calm - N/A   Overcast
8:19 AM 63.0 °F - 63.0 °F 100% 30.04 in 3.0 mi Calm Calm - N/A   Overcast
8:51 AM 66.0 °F - 64.0 °F 93% 30.04 in 9.0 mi Calm Calm - N/A   Partly Cloudy
9:51 AM 75.0 °F - 64.9 °F 71% 30.02 in 10.0 mi Calm Calm - N/A   Clear
10:51 AM 78.8 °F - 66.2 °F 65% 30.02 in 10.0 mi Calm Calm - N/A   Clear
11:51 AM 81.0 °F 82.5 °F 64.0 °F 56% 30.00 in 10.0 mi Calm Calm - N/A   Partly Cloudy
12:51 PM 82.9 °F 84.0 °F 63.0 °F 51% 29.98 in 8.0 mi SSW 5.8 mph - N/A   Partly Cloudy
1:51 PM 82.9 °F 83.7 °F 62.1 °F 49% 29.97 in 9.0 mi NW 5.8 mph - N/A   Overcast
2:51 PM 82.0 °F 83.0 °F 62.1 °F 51% 29.94 in 8.0 mi NW 5.8 mph - 0.00 in Rain Light Rain
3:51 PM 77.0 °F - 62.1 °F 60% 29.94 in 10.0 mi North 6.9 mph 20.7 mph 0.00 in   Partly Cloudy
4:51 PM 80.1 °F 81.2 °F 62.1 °F 54% 29.91 in 10.0 mi Calm Calm - N/A   Partly Cloudy
5:51 PM 81.0 °F 81.9 °F 62.1 °F 52% 29.91 in 10.0 mi Calm Calm - N/A   Clear
6:51 PM 75.9 °F - 66.0 °F 71% 29.91 in 9.0 mi SE 3.5 mph - N/A   Clear
7:51 PM 73.9 °F - 63.0 °F 68% 29.94 in 9.0 mi NNW 21.9 mph 28.8 mph N/A   Scattered Clouds
8:51 PM 68.0 °F - 61.0 °F 78% 29.93 in 10.0 mi NE 5.8 mph - 0.00 in   Mostly Cloudy
9:51 PM 68.0 °F - 63.0 °F 84% 29.93 in 10.0 mi NNW 3.5 mph - N/A   Scattered Clouds
10:51 PM 66.0 °F - 62.1 °F 87% 29.91 in 10.0 mi NNW 5.8 mph - N/A   Clear
11:51 PM 66.0 °F - 63.0 °F 90% 29.91 in 10.0 mi NE 3.5 mph - N/A   Mostly Cloudy